EHI
51 50 48 44 40 38 39 36 31 24 17 15 17 16 13 9 8 9 9 7 5 4 5 6 6 6 7 6 6 7 6 4 3 5 7 8 7 7 7 8 7 4 2
55 54 51 46 42 39 38 34 30 24 18 16 16 16 14 10 8 8 8 7 5 2 3 4 4 5 7 7 6 6 4 3 3 5 7 7 6 7 7 7 6 3 2
57 55 52 49 45 40 35 30 28 24 18 16 17 17 17 14 10 9 9 9 6 3 2 3 3 4 6 7 5 4 3 2 3 4 6 6 6 6 6 4 3 3 2
55 54 52 49 44 38 32 28 26 24 21 19 19 20 19 16 13 10 10 9 9 6 4 5 4 3 4 5 3 2 2 3 4 4 5 5 5 4 3 2 2 2 3
54 52 50 46 40 34 31 29 28 27 26 24 23 22 19 15 12 9 8 9 10 8 5 5 4 3 3 3 2 1 1 4 5 5 4 4 4 3 2 1 0 1 2
51 48 46 43 38 34 32 32 32 31 30 28 27 23 18 11 7 5 6 8 9 6 3 2 2 2 2 3 2 1 1 3 5 5 5 4 3 2 1 0 0 0 1
50 47 44 42 40 36 34 35 36 35 34 31 29 25 18 10 3 1 3 6 6 4 1 1 0 1 1 2 3 2 1 1 2 4 4 3 2 1 1 0 0 0 0
50 48 45 44 42 39 37 37 38 38 36 34 29 25 18 9 2 0 1 3 4 3 2 1 0 0 0 1 3 3 3 2 1 2 2 1 1 0 0 0 0 0 0
48 47 46 45 43 41 39 38 38 37 36 32 27 23 18 10 3 0 1 2 3 3 3 1 1 1 0 1 2 3 4 4 1 0 0 0 0 0 0 0 0 0 0
43 45 47 46 43 41 39 37 35 34 32 28 24 21 17 11 4 1 1 2 3 4 4 3 2 1 0 0 2 3 4 3 1 0 0 0 0 0 0 0 0 0 0
40 43 46 45 41 37 36 35 32 30 28 26 23 19 16 11 6 3 1 2 4 5 5 4 3 1 0 0 1 2 2 2 1 0 0 0 0 0 0 0 0 0 0
37 39 40 39 36 33 32 30 28 26 25 24 22 19 15 11 7 4 1 1 3 4 4 3 2 1 0 0 0 1 1 1 1 0 0 0 0 0 0 0 0 0 0
33 33 33 33 33 31 28 26 24 23 21 20 20 18 16 12 8 5 2 0 1 2 2 2 1 1 0 0 0 0 0 0 0 0 0 0 0 0 0 0 0 0 0
30 28 28 31 31 28 25 23 21 18 16 16 17 17 16 13 9 5 3 2 1 1 1 1 1 0 0 0 0 0 0 0 0 0 0 0 0 0 0 0 0 0 0
27 26 26 29 30 26 22 18 15 13 12 13 14 14 14 12 8 5 4 3 3 3 2 2 2 1 0 0 0 0 0 0 0 0 0 0 0 0 0 0 0 0 0
26 25 25 25 25 23 19 14 10 8 8 8 9 10 10 7 4 3 2 2 3 3 3 3 3 2 1 0 0 0 0 0 0 0 0 0 0 0 0 0 0 0 0
25 24 21 19 19 19 18 14 9 6 4 4 4 5 5 2 1 1 0 1 1 1 3 3 3 3 1 1 0 0 0 0 0 0 0 0 0 0 0 0 0 0 0
21 19 16 15 16 18 19 16 11 7 5 3 2 2 1 0 0 0 0 1 1 1 2 3 3 3 3 2 1 0 0 0 0 0 0 0 0 0 0 0 0 0 0
18 15 13 13 15 17 17 15 11 9 7 5 2 1 0 0 0 0 1 2 2 1 1 2 2 3 3 2 1 0 0 0 0 0 0 0 0 0 0 0 0 0 0
17 13 10 11 13 16 16 13 10 9 7 5 3 2 1 0 0 0 1 2 2 1 1 1 1 2 2 1 0 0 0 0 0 0 0 0 0 0 0 0 0 0 0
16 12 9 10 13 16 16 12 9 8 6 5 4 2 1 1 1 1 0 1 1 1 0 0 0 1 1 0 0 0 0 0 0 0 0 0 0 0 0 0 0 0 0
15 12 10 10 13 15 13 10 9 9 7 5 4 2 1 1 2 1 0 0 0 0 0 0 0 0 0 0 0 0 0 0 0 0 0 0 0 0 0 0 0 0 0
14 11 9 10 11 11 9 7 8 8 7 5 3 2 1 1 1 0 0 0 0 0 0 0 0 0 0 0 0 0 0 0 0 0 0 0 0 0 0 0 0 0 0
11 9 7 8 9 9 7 7 7 7 5 3 2 1 0 0 0 0 0 0 0 0 0 0 0 0 0 0 0 0 0 0 0 0 0 0 0 0 0 0 0 0 0
9 7 7 7 8 8 6 6 6 5 3 1 1 0 0 0 0 0 0 0 0 0 0 0 0 0 0 0 0 0 0 0 0 0 0 0 0 0 0 0 0 0 0
7 7 7 8 8 7 5 4 4 4 2 1 0 0 0 0 0 0 0 0 0 0 0 0 0 0 0 0 0 0 0 0 0 0 0 0 0 0 0 0 0 0 0
Wind_Speed
3 2 2 2 2 2 1 1 1 1 2 2 2 2 2 2 2 1 1 1 1 1 2 1 1 1 1 2 1 1 1 1 2 1 0 1 2 2 3 2 3 3 3
4 3 2 2 2 2 2 1 1 1 1 2 2 2 2 2 2 2 2 2 2 2 2 2 3 2 2 2 1 1 0 1 2 2 1 1 1 2 3 2 2 3 3
5 4 3 2 2 2 1 2 2 2 2 2 2 1 1 2 2 3 2 3 3 3 3 3 3 3 3 2 2 1 1 0 1 2 2 1 1 1 2 2 2 2 3
5 4 3 2 2 2 2 2 2 2 1 2 2 1 1 2 3 3 3 2 2 3 3 3 4 3 3 3 2 2 1 0 0 1 1 1 1 1 2 1 1 1 2
4 4 3 3 2 2 2 2 2 1 2 2 2 2 2 2 3 3 2 2 2 3 3 3 4 5 6 4 3 3 2 1 0 0 1 1 1 1 1 2 2 2 2
3 3 3 3 3 2 2 2 2 2 2 2 2 2 3 3 4 5 3 2 2 2 3 2 2 4 5 5 5 5 3 1 1 1 1 1 1 1 1 2 2 2 2
4 2 2 3 3 2 2 2 2 2 2 2 2 3 3 4 5 5 5 2 2 3 3 2 2 3 3 3 3 3 3 3 1 1 1 0 0 1 1 1 1 2 1
4 4 2 2 3 2 2 1 1 2 2 2 2 2 3 4 5 5 5 1 2 3 3 3 2 3 4 3 1 2 2 3 2 1 1 1 1 1 0 1 2 1 1
4 4 3 3 3 2 2 1 1 1 2 2 2 3 3 3 4 4 4 1 2 2 3 3 3 3 5 6 2 2 2 2 4 4 3 2 2 2 1 1 1 1 1
3 3 3 3 3 3 2 2 1 1 2 3 3 3 3 4 4 4 4 0 1 2 2 3 5 4 5 5 2 1 1 1 1 1 1 1 1 1 1 1 1 0 0
3 3 3 3 3 3 2 2 2 2 2 3 3 3 4 4 4 4 4 2 1 1 1 2 2 3 4 4 3 1 2 2 1 1 1 1 1 1 1 0 0 0 0
3 3 3 2 2 3 2 2 2 2 3 3 3 3 3 4 3 3 3 3 3 1 1 2 2 2 2 3 2 2 3 2 1 1 1 1 1 0 0 0 0 1 1
3 3 3 3 2 3 3 2 2 2 2 2 2 2 2 3 3 3 2 2 4 2 2 2 0 2 2 1 0 2 2 1 1 0 0 0 0 0 1 0 1 1 1
3 3 3 3 3 2 1 2 1 1 1 1 1 2 2 3 3 2 1 1 1 1 1 1 2 2 2 1 1 0 0 1 1 1 1 0 0 0 0 0 0 0 0
3 3 3 3 4 3 3 3 2 2 1 1 1 1 2 2 1 1 1 0 1 1 1 1 1 1 1 0 0 0 0 1 1 1 2 1 1 0 0 0 0 0 1
4 4 4 4 4 4 4 3 6 4 5 5 4 3 4 4 4 3 2 2 2 2 1 1 0 0 1 1 1 1 1 1 2 1 1 1 1 1 1 0 0 1 1
3 3 3 3 4 4 4 4 4 3 5 5 4 5 5 5 4 2 2 3 3 1 1 1 1 1 1 1 1 1 1 1 2 2 1 2 2 1 1 1 1 1 1
4 4 3 3 4 4 4 4 4 5 4 3 2 3 4 4 3 1 1 1 0 0 0 0 1 1 2 2 2 2 2 1 1 2 2 2 2 2 2 1 1 2 2
4 3 3 3 3 3 3 3 4 4 4 5 4 3 3 3 2 1 1 1 1 0 0 1 1 1 2 2 2 2 2 1 2 2 2 2 2 2 2 2 2 1 2
3 4 3 3 3 3 3 4 4 4 4 4 4 4 4 4 3 3 2 2 1 0 1 1 2 2 2 1 1 1 1 1 2 2 2 2 3 2 3 2 2 2 2
4 5 5 4 3 3 3 4 4 4 4 4 4 5 6 4 3 3 2 2 1 0 1 1 1 1 1 1 1 2 2 1 1 2 2 3 3 3 3 2 2 2 2
3 4 4 3 2 2 2 3 3 3 3 4 4 5 5 3 3 3 2 2 1 1 1 1 1 1 1 0 1 1 2 2 2 3 3 3 3 3 3 3 2 2 2
2 3 3 3 3 3 3 3 3 3 4 4 4 5 5 3 2 2 2 2 1 1 1 1 0 0 1 0 1 1 2 2 2 2 3 3 3 3 3 3 3 3 2
2 2 3 3 3 4 3 3 3 3 3 3 4 4 4 3 3 2 2 2 1 1 1 1 0 1 2 1 1 2 2 2 3 3 4 4 4 3 3 3 3 3 3
2 2 2 2 3 3 3 2 2 2 2 2 3 3 3 3 3 2 2 2 2 2 1 1 1 1 2 2 1 2 2 2 2 4 4 4 5 4 3 3 3 3 3
2 2 2 2 2 2 2 2 2 3 3 3 3 3 3 3 3 2 2 2 2 2 2 1 1 1 1 1 3 3 1 1 1 2 4 4 5 4 4 3 4 3 3
Wind_Direction
157 154 149 153 147 135 127 107 79 54 44 40 34 25 25 37 32 6 350 24 19 5 353 4 345 326 324 311 302 258 197 175 205 240 186 135 139 133 130 136 129 128 129
152 152 145 129 132 140 135 123 102 90 82 67 55 40 23 29 25 18 12 25 20 15 13 19 3 358 360 342 343 323 246 202 191 204 199 164 154 143 146 157 139 135 130
151 148 141 145 134 130 119 109 109 104 94 89 76 64 36 33 30 21 36 36 32 28 26 28 19 17 9 358 357 346 328 295 181 183 191 154 147 148 141 146 126 132 131
143 142 137 133 133 138 127 113 105 109 114 105 87 63 62 58 37 25 40 46 46 42 36 37 33 25 13 2 5 11 11 21 212 204 178 150 131 137 141 154 149 153 127
142 143 134 131 131 125 118 118 117 119 113 97 90 70 58 66 29 22 26 56 59 57 47 49 53 46 39 31 23 16 11 26 345 226 132 116 120 133 177 187 164 136 105
116 135 138 138 140 138 132 128 124 116 110 108 98 76 57 43 28 31 28 46 49 61 61 48 65 56 44 50 46 38 32 28 45 65 95 115 142 162 178 155 151 150 162
126 123 140 151 156 153 146 130 138 129 116 102 92 86 77 56 42 37 26 41 57 53 54 40 36 44 38 29 41 49 39 26 37 68 70 6 181 182 170 176 172 173 178
145 151 156 161 148 131 124 131 129 120 120 122 109 94 85 62 45 37 11 74 84 71 56 46 49 41 24 7 18 59 53 35 30 68 73 34 32 37 179 197 188 152 130
152 150 154 153 143 139 144 143 123 128 136 136 118 108 103 81 47 35 10 61 102 90 79 55 46 43 13 8 22 48 52 47 53 58 77 92 63 38 31 74 109 121 121
153 149 142 137 140 142 141 132 133 145 134 126 112 109 108 95 63 41 8 343 97 98 100 87 59 44 17 16 14 20 16 359 41 54 60 67 73 81 98 88 74 89 81
135 130 130 135 143 140 129 125 135 136 125 123 127 121 108 106 94 60 37 21 21 60 92 91 67 31 14 3 1 6 331 314 291 227 152 117 92 63 71 86 71 359 75
130 133 131 137 146 131 133 143 149 146 146 144 143 139 126 118 100 76 53 31 360 14 52 73 76 25 348 336 345 341 335 327 320 21 59 61 66 73 353 211 133 29 53
133 134 134 134 117 127 150 166 171 170 173 156 154 154 136 123 108 90 80 36 17 26 41 61 314 274 279 257 294 355 2 10 352 354 47 44 194 227 211 179 135 99 30
145 145 146 145 137 132 163 156 138 139 158 148 148 146 135 124 104 88 93 97 64 79 46 288 245 253 279 319 353 355 33 357 328 326 324 254 180 133 112 102 134 181 225
157 160 163 156 140 122 88 54 74 69 84 130 88 91 113 116 108 132 147 30 341 1 315 238 213 190 201 217 171 359 360 2 325 326 340 344 357 14 276 151 175 257 246
179 185 181 164 157 155 141 106 52 70 84 80 80 93 91 102 119 101 67 21 349 341 302 280 340 21 10 354 332 350 12 1 338 327 342 334 318 299 270 268 280 291 297
187 187 181 171 167 170 166 160 144 101 74 69 74 93 110 124 118 101 51 2 331 325 281 321 24 23 10 356 356 7 12 14 345 333 333 325 316 310 307 294 290 283 279
191 185 183 187 179 176 176 175 168 163 157 140 106 119 137 144 146 141 70 10 348 179 257 4 30 25 23 12 12 8 7 15 4 335 336 332 322 315 312 291 264 257 269
200 192 184 192 191 182 175 171 170 168 152 143 145 148 167 165 177 217 244 268 287 8 16 35 42 40 32 19 14 3 355 0 354 332 338 326 319 316 311 302 297 286 274
190 185 186 202 205 181 177 173 171 164 158 155 159 154 157 170 175 176 196 239 258 8 36 41 53 48 44 28 6 339 329 342 346 336 329 314 312 310 304 298 303 298 284
190 181 196 216 207 178 177 176 172 173 168 162 159 152 158 173 174 167 174 188 212 232 97 76 77 73 61 32 345 320 320 340 346 333 324 322 325 320 311 304 299 303 303
196 183 191 204 184 163 178 178 169 167 166 161 153 149 164 184 179 173 174 169 184 199 148 139 143 114 82 9 343 329 334 359 353 339 328 320 312 311 314 317 318 311 307
207 194 190 189 171 162 180 179 175 175 173 167 159 155 170 191 193 176 176 175 175 186 153 151 191 145 95 61 50 39 9 360 337 323 315 308 306 305 309 314 310 312 313
210 199 190 181 179 181 186 186 183 179 173 170 170 167 175 187 196 187 180 171 170 174 151 139 106 88 87 67 62 59 37 2 340 332 319 303 295 299 308 306 303 310 309
207 193 190 189 186 187 190 184 172 169 166 167 168 175 184 187 196 190 175 176 172 167 165 151 129 84 91 89 70 71 64 39 9 341 318 301 295 298 302 301 301 300 301
214 201 188 189 187 183 184 185 180 170 176 181 184 184 191 196 195 188 185 185 181 171 174 163 144 121 108 103 91 98 112 101 348 327 311 298 297 306 316 309 309 306 307